Weather in Verkhnyaya Matrenka

Russia / Lipetsk Oblast     52°03′16″N   40°10′58″E
temp.,
°C
wind,
m/s
gust,
m/s
humid.,
%
clouds,
%
prec.,
mm/h
press.,
hPa
HPBL,
m
7 may, fri
fri700:00+13sse51367100 0.0 1009322
03:00+11wsw3686100 0.7 1009204
06:00+9nw61095100 2.4 1010621
09:00+8nnw4790100 6.1 1013440
12:00+11nnw4567100 0.1 10141273
15:00+14nw255177 0.2 10141877
18:00+14nw1254100 0.0 101544
21:00+9sse2269100 0.0 101721
8 may, sat
sat800:00+7sse36815 0.0 1017101
03:00+6sse4108176 0.0 1016200
06:00+7se5128032 0.0 1015322
09:00+13sse8136338 0.0 1013749
12:00+17s10135688 0.0 10101338
15:00+13s61384100 1.1 1009745
18:00+12ssw3994100 1.8 1008387
21:00+12sw5996100 6.7 1008506
9 may, sun
sun900:00+9w61091100 2.5 1010631
03:00+7w4989100 2.6 1012671
06:00+6wnw4889100 0.1 1013700
09:00+7nw5882100 0.1 1015988
12:00+8nnw6878100 0.1 10161058
15:00+9nnw7865100 0.2 10181514
18:00+9n71072100 0.1 10191121
21:00+7nnw51177100 0.1 1022543
10 may, mon
mon1000:00+6nnw61379100 0.0 1022495
03:00+5n7168198 0.0 1023610
06:00+6n81678100 0.0 1024859
09:00+10nne10176499 0.0 10241055
12:00+10nne81360100 0.0 10241114
15:00+10nne91661100 0.0 1024797
18:00+12nne7146691 0.0 1024835
21:00+9nne715735 0.0 1025622
11 may, tue
tue1100:00+8nne7167767 0.0 1025541
03:00+8nne716835 0.0 1024482
06:00+8nne817815 0.0 1025524
09:00+13ne9136833 0.0 1025713
12:00+16ene81065100 0.0 10251184
15:00+15ne797033 0.0 1025975
18:00+16ne5973100 0.0 1025832
21:00+13ne4108198 0.2 1025344